This is the latest recevied weather packets stored in our database for station/object HA3KE-10. If no packets are shown the sender has not sent any weather packets the latest 10 day(s).
| Time | Temp. | Humidity | Pressure | Rain* | Wind** | Luminosity | Snow |
|---|---|---|---|---|---|---|---|
| 1777967389 | 20.56° C | 39% | 1015.3 hPa | - | - | - | - |
| 1777966489 | 20.56° C | 40% | 1015.2 hPa | - | - | - | - |
| 1777965589 | 20° C | 40% | 1015.3 hPa | - | - | - | - |
| 1777964689 | 18.89° C | 41% | 1015.4 hPa | - | - | - | - |
| 1777963788 | 18.89° C | 40% | 1015.4 hPa | - | - | - | - |
| 1777962888 | 18.33° C | 40% | 1015.3 hPa | - | - | - | - |
| 1777961988 | 17.78° C | 40% | 1015.3 hPa | - | - | - | - |
| 1777961088 | 17.22° C | 40% | 1015.2 hPa | - | - | - | - |
| 1777960188 | 17.22° C | 40% | 1015.2 hPa | - | - | - | - |
| 1777959288 | 17.22° C | 39% | 1015.2 hPa | - | - | - | - |
| 1777958388 | 16.67° C | 39% | 1015.1 hPa | - | - | - | - |
| 1777957487 | 16.67° C | 39% | 1015 hPa | - | - | - | - |
| 1777956587 | 16.67° C | 39% | 1014.9 hPa | - | - | - | - |
| 1777955690 | 16.67° C | 38% | 1014.9 hPa | - | - | - | - |
| 1777954790 | 16.11° C | 39% | 1014.9 hPa | - | - | - | - |
| 1777953890 | 16.11° C | 41% | 1014.9 hPa | - | - | - | - |
| 1777919687 | 20° C | 32% | 1015.8 hPa | - | - | - | - |
| 1777917887 | 21.67° C | 30% | 1015.7 hPa | - | - | - | - |
| 1777916086 | 23.89° C | 29% | 1015.8 hPa | - | - | - | - |
| 1777908888 | 29.44° C | 17% | 1016 hPa | - | - | - | - |
| 1777907088 | 29.44° C | 18% | 1016.2 hPa | - | - | - | - |
| 1777905287 | 29.44° C | 19% | 1016.3 hPa | - | - | - | - |
| 1777903487 | 29.44° C | 17% | 1016.6 hPa | - | - | - | - |
| 1777902587 | 29.44° C | 18% | 1016.7 hPa | - | - | - | - |
| 1777901687 | 29.44° C | 19% | 1016.8 hPa | - | - | - | - |
* Rain since midnight (hover to see other rain measurements)
** Current wind speed in m/s (hover to see current wind gust speed)